Home > Weather > Rae-Edzo > Past weeks

Flag for Canada Weather for the Past 2 Weeks in Rae-Edzo, Northwest Territories, Canada

Now
50 °F

Cool.


Feels Like: 48 °F
Forecast: 29 / 55 °F
Wind: 5 mph from South

Location: Lac La Martre

Current Time: Apr 30, 2016 at 11:26:07 PM

Latest Report: Apr 30, 2016 at 10:00 PM


Visibility: N/A

Pressure: 29.93 "Hg

Humidity: 50%

Dew Point: 32 °F

Location of Rae-EdzoLocation

Historic Weather in Rae-Edzo — Graph

°F

Rae-Edzo Temperature Yesterday

Maximum temperature yesterday: 58 °F (at 7:00 PM)
Minimum temperature yesterday: 40 °F (at 6:00 AM)
Average temperature yesterday: 49 °F

High & Low Weather Summary for the Past Weeks

 TemperatureHumidityPressure
High58 °F (Apr 29, 7:00 PM)100% (Apr 19, 10:00 AM)30.57 "Hg (Apr 19, 10:00 AM)
Low-1 °F (Apr 22, 6:00 AM)29% (Apr 22, 4:00 PM)29.15 "Hg (Apr 19, 7:00 AM)
Average33 °F61%30.13 "Hg
* Reported Apr 15 10:00 PM — Apr 30 10:00 PM, Rae-Edzo, Weather by CustomWeather, © 2016

Note: Actual official high and low records may vary slightly from our data, if they occured in-between our weather recording intervals... More about our weather records

Advertising

Rae-Edzo Weather History for the Previous 24 Hours

Scroll right to see more
 ConditionsComfort  
Time TempWeatherWind HumidityBarometerVisibility
10:00 PM
Sat, Apr 30
50 °FCool.5 mph50%29.93 "HgN/A
9:00 PM53 °FCool.6 mph43%29.94 "HgN/A
8:00 PM54 °FCool.6 mph43%29.94 "HgN/A
7:00 PM50 °FCool.9 mph52%29.95 "HgN/A
6:00 PM56 °FRefreshingly cool.10 mph36%29.93 "HgN/A
5:00 PM57 °FRefreshingly cool.13 mph36%29.93 "HgN/A
4:00 PM58 °FRefreshingly cool.13 mph33%29.92 "HgN/A
3:00 PM57 °FRefreshingly cool.16 mph34%29.92 "HgN/A
2:00 PM57 °FRefreshingly cool.12 mph36%29.91 "HgN/A
1:00 PM56 °FRefreshingly cool.9 mph39%29.91 "HgN/A
12:00 PM56 °FRefreshingly cool.6 mph38%29.91 "HgN/A
11:00 AM54 °FCool.6 mph46%29.92 "HgN/A
10:00 AM51 °FCool.7 mph54%29.91 "HgN/A
9:00 AM46 °FCool.6 mph68%29.90 "HgN/A
8:00 AM42 °FQuite cool.3 mph77%29.90 "HgN/A
7:00 AM40 °FChilly.3 mph80%29.90 "HgN/A
6:00 AM39 °FChilly.3 mph76%29.90 "HgN/A
5:00 AM40 °FChilly.5 mph73%29.89 "HgN/A
4:00 AM41 °FQuite cool.6 mph74%29.90 "HgN/A
3:00 AM42 °FQuite cool.6 mph71%29.90 "HgN/A
2:00 AM42 °FQuite cool.6 mph71%29.90 "HgN/A
1:00 AM43 °FQuite cool.6 mph67%29.91 "HgN/A
12:00 AM45 °FCool.6 mph62%29.92 "HgN/A
11:00 PM
Fri, Apr 29
47 °FCool.6 mph60%29.92 "HgN/A
Weather by CustomWeather, © 2016

See weather overviewHow to use our weather pages